This is the latest recevied weather packets stored in our database for station/object NR0A-4. If no packets are shown the sender has not sent any weather packets the latest 10 day(s).
| Time | Temp. | Humidity | Pressure | Rain* | Wind** | Luminosity | Snow |
|---|---|---|---|---|---|---|---|
| 1777683605 | 11.11° C | 38% | 1019 hPa | 0 mm | - | 19 W/m² | - |
| 1777683304 | 11.11° C | 37% | 1019 hPa | 0 mm | - | 21 W/m² | - |
| 1777683004 | 11.11° C | 36% | 1018.9 hPa | 0 mm | - | 25 W/m² | - |
| 1777682704 | 11.11° C | 36% | 1018.9 hPa | 0 mm | - | 26 W/m² | - |
| 1777682404 | 11.11° C | 36% | 1018.8 hPa | 0 mm | - | 28 W/m² | - |
| 1777682104 | 11.67° C | 36% | 1018.7 hPa | 0 mm | - | 30 W/m² | - |
| 1777681804 | 11.67° C | 36% | 1018.7 hPa | 0 mm | - | 32 W/m² | - |
| 1777681504 | 11.67° C | 36% | 1018.7 hPa | 0 mm | - | 33 W/m² | - |
| 1777681204 | 12.22° C | 36% | 1018.7 hPa | 0 mm | - | 35 W/m² | - |
| 1777680904 | 12.22° C | 35% | 1018.7 hPa | 0 mm | - | 37 W/m² | - |
| 1777680604 | 12.22° C | 33% | 1018.7 hPa | 0 mm | - | 91 W/m² | - |
| 1777680304 | 12.78° C | 33% | 1018.7 hPa | 0 mm | - | 176 W/m² | - |
| 1777680004 | 12.78° C | 34% | 1018.7 hPa | 0 mm | - | 193 W/m² | - |
| 1777679704 | 12.78° C | 34% | 1018.6 hPa | 0 mm | - | 211 W/m² | - |
| 1777679404 | 12.78° C | 34% | 1018.6 hPa | 0 mm | - | 229 W/m² | - |
| 1777679104 | 12.78° C | 34% | 1018.6 hPa | 0 mm | - | 118 W/m² | - |
| 1777678804 | 12.78° C | 34% | 1018.6 hPa | 0 mm | - | 46 W/m² | - |
| 1777678504 | 12.78° C | 33% | 1018.6 hPa | 0 mm | - | 47 W/m² | - |
| 1777678204 | 12.78° C | 35% | 1018.6 hPa | 0 mm | - | 49 W/m² | - |
| 1777677904 | 13.33° C | 34% | 1018.6 hPa | 0 mm | - | 54 W/m² | - |
| 1777677604 | 13.33° C | 34% | 1018.6 hPa | 0 mm | - | 330 W/m² | - |
| 1777677304 | 13.33° C | 34% | 1018.6 hPa | 0 mm | - | 338 W/m² | - |
| 1777677004 | 13.33° C | 35% | 1018.6 hPa | 0 mm | - | 353 W/m² | - |
| 1777676704 | 13.89° C | 35% | 1018.6 hPa | 0 mm | - | 376 W/m² | - |
| 1777676405 | 13.89° C | 32% | 1018.6 hPa | 0 mm | - | 392 W/m² | - |
* Rain latest hour (hover to see other rain measurements)
** Current wind speed in m/s (hover to see current wind gust speed)